Time,TemperatureF,DewpointF,PressureIn,WindDirection,WindDirectionDegrees,WindSpeedMPH,WindSpeedGustMPH,Humidity,HourlyPrecipIn,Conditions,Clouds,dailyrainin,SolarRadiationWatts/m^2,SoftwareType,DateUTC
2013-09-17 00:01:00,53.0,49.2,30.30,ENE,78,1.2,0.0,87,0.00,CLR,,0.00,0.0,WeatherDisplay:10.37,2013-09-17 05:01:00,
2013-09-17 00:06:00,52.8,49.0,30.30,ENE,78,0.0,0.0,87,0.00,CLR,,0.00,0.0,WeatherDisplay:10.37,2013-09-17 05:06:00,
2013-09-17 00:11:00,52.7,48.9,30.30,ENE,78,0.0,0.0,87,0.00,CLR,,0.00,0.0,WeatherDisplay:10.37,2013-09-17 05:11:00,
2013-09-17 00:16:00,52.6,48.8,30.30,East,80,0.0,0.0,87,0.00,CLR,,0.00,0.0,WeatherDisplay:10.37,2013-09-17 05:16:00,
2013-09-17 00:21:00,52.4,48.6,30.30,ENE,78,0.0,0.0,87,0.00,CLR,,0.00,0.0,WeatherDisplay:10.37,2013-09-17 05:21:00,
2013-09-17 00:26:00,52.3,48.9,30.30,ENE,77,2.3,2.3,88,0.00,CLR,,0.00,0.0,WeatherDisplay:10.37,2013-09-17 05:26:00,
2013-09-17 00:31:00,52.2,48.8,30.30,ENE,71,3.5,0.0,88,0.00,CLR,,0.00,0.0,WeatherDisplay:10.37,2013-09-17 05:31:00,
2013-09-17 00:36:00,52.1,48.7,30.30,ENE,75,4.6,4.6,88,0.00,CLR,,0.00,0.0,WeatherDisplay:10.37,2013-09-17 05:36:00,
2013-09-17 00:41:00,52.1,48.7,30.30,ENE,76,0.0,0.0,88,0.00,CLR,,0.00,0.0,WeatherDisplay:10.37,2013-09-17 05:41:00,
2013-09-17 00:46:00,52.0,48.9,30.30,East,79,2.0,2.0,89,0.00,CLR,,0.00,0.0,WeatherDisplay:10.37,2013-09-17 05:46:00,
2013-09-17 00:51:00,51.9,48.8,30.30,East,82,3.5,3.5,89,0.00,CLR,,0.00,0.0,WeatherDisplay:10.37,2013-09-17 05:51:00,
2013-09-17 00:56:00,51.9,48.8,30.30,East,82,0.0,0.0,89,0.00,CLR,,0.00,0.0,WeatherDisplay:10.37,2013-09-17 05:56:00,
2013-09-17 01:01:00,51.8,48.7,30.30,East,82,0.0,0.0,89,0.00,CLR,,0.00,0.0,WeatherDisplay:10.37,2013-09-17 06:01:00,
2013-09-17 01:06:00,51.7,48.6,30.30,East,82,0.0,0.0,89,0.00,CLR,,0.00,0.0,WeatherDisplay:10.37,2013-09-17 06:06:00,
2013-09-17 01:11:00,51.6,48.5,30.30,East,82,0.0,0.0,89,0.00,CLR,,0.00,0.0,WeatherDisplay:10.37,2013-09-17 06:11:00,
2013-09-17 01:16:00,51.5,48.4,30.30,East,82,0.0,0.0,89,0.00,CLR,,0.00,0.0,WeatherDisplay:10.37,2013-09-17 06:16:00,
2013-09-17 01:21:00,51.4,48.3,30.30,East,82,0.0,0.0,89,0.00,CLR,,0.00,0.0,WeatherDisplay:10.37,2013-09-17 06:21:00,
2013-09-17 01:26:00,51.3,48.2,30.30,East,82,0.0,0.0,89,0.00,CLR,,0.00,0.0,WeatherDisplay:10.37,2013-09-17 06:26:00,
2013-09-17 01:31:00,51.2,48.1,30.30,East,82,0.0,0.0,89,0.00,CLR,,0.00,0.0,WeatherDisplay:10.37,2013-09-17 06:31:00,
2013-09-17 01:36:00,51.0,47.9,30.30,East,82,0.0,0.0,89,0.00,CLR,,0.00,0.0,WeatherDisplay:10.37,2013-09-17 06:36:00,
2013-09-17 01:42:00,50.9,48.1,30.30,East,82,0.0,0.0,90,0.00,CLR,,0.00,0.0,WeatherDisplay:10.37,2013-09-17 06:42:00,
2013-09-17 01:47:00,50.8,48.0,30.30,East,82,0.0,0.0,90,0.00,CLR,,0.00,0.0,WeatherDisplay:10.37,2013-09-17 06:47:00,
2013-09-17 01:52:00,50.6,47.8,30.30,East,82,0.0,0.0,90,0.00,CLR,,0.00,0.0,WeatherDisplay:10.37,2013-09-17 06:52:00,
2013-09-17 01:57:00,50.6,47.8,30.30,East,82,0.0,0.0,90,0.00,CLR,,0.00,0.0,WeatherDisplay:10.37,2013-09-17 06:57:00,
2013-09-17 02:02:00,50.5,47.7,30.30,East,82,0.0,0.0,90,0.00,CLR,,0.00,0.0,WeatherDisplay:10.37,2013-09-17 07:02:00,
2013-09-17 02:07:00,50.4,47.6,30.30,East,82,0.0,0.0,90,0.00,CLR,,0.00,0.0,WeatherDisplay:10.37,2013-09-17 07:07:00,
2013-09-17 02:12:00,50.3,47.5,30.30,East,82,0.0,0.0,90,0.00,CLR,,0.00,0.0,WeatherDisplay:10.37,2013-09-17 07:12:00,
2013-09-17 02:17:00,50.3,47.5,30.30,East,82,0.0,0.0,90,0.00,CLR,,0.00,0.0,WeatherDisplay:10.37,2013-09-17 07:17:00,
2013-09-17 02:22:00,50.1,47.3,30.30,East,82,0.0,0.0,90,0.00,CLR,,0.00,0.0,WeatherDisplay:10.37,2013-09-17 07:22:00,
2013-09-17 02:27:00,50.0,47.2,30.30,East,82,0.0,0.0,90,0.00,CLR,,0.00,0.0,WeatherDisplay:10.37,2013-09-17 07:27:00,
2013-09-17 02:32:00,49.9,47.1,30.30,East,82,0.0,0.0,90,0.00,CLR,,0.00,0.0,WeatherDisplay:10.37,2013-09-17 07:32:00,
2013-09-17 02:37:00,49.7,46.9,30.30,East,82,0.0,0.0,90,0.00,CLR,,0.00,0.0,WeatherDisplay:10.37,2013-09-17 07:37:00,
2013-09-17 02:42:00,49.6,46.8,30.30,East,82,0.0,0.0,90,0.00,CLR,,0.00,0.0,WeatherDisplay:10.37,2013-09-17 07:42:00,
2013-09-17 02:47:00,49.5,46.7,30.30,East,82,0.0,0.0,90,0.00,CLR,,0.00,0.0,WeatherDisplay:10.37,2013-09-17 07:47:00,
2013-09-17 02:52:00,49.3,46.5,30.30,East,82,0.0,0.0,90,0.00,CLR,,0.00,0.0,WeatherDisplay:10.37,2013-09-17 07:52:00,
2013-09-17 02:57:00,49.2,46.4,30.30,East,82,0.0,0.0,90,0.00,CLR,,0.00,0.0,WeatherDisplay:10.37,2013-09-17 07:57:00,
2013-09-17 03:02:00,49.1,46.3,30.30,East,82,0.0,0.0,90,0.00,CLR,,0.00,0.0,WeatherDisplay:10.37,2013-09-17 08:02:00,
2013-09-17 03:07:00,49.0,46.2,30.30,East,82,0.0,0.0,90,0.00,CLR,,0.00,0.0,WeatherDisplay:10.37,2013-09-17 08:07:00,
2013-09-17 03:12:00,48.9,46.1,30.29,East,82,0.0,0.0,90,0.00,CLR,,0.00,0.0,WeatherDisplay:10.37,2013-09-17 08:12:00,
2013-09-17 03:17:00,48.8,46.0,30.29,East,82,0.0,0.0,90,0.00,CLR,,0.00,0.0,WeatherDisplay:10.37,2013-09-17 08:17:00,
2013-09-17 03:22:00,48.7,46.2,30.29,East,82,0.0,0.0,91,0.00,CLR,,0.00,0.0,WeatherDisplay:10.37,2013-09-17 08:22:00,
2013-09-17 03:27:00,48.6,46.1,30.29,East,82,0.0,0.0,91,0.00,CLR,,0.00,0.0,WeatherDisplay:10.37,2013-09-17 08:27:00,
2013-09-17 03:32:00,48.5,46.0,30.29,East,82,0.0,0.0,91,0.00,CLR,,0.00,0.0,WeatherDisplay:10.37,2013-09-17 08:32:00,
2013-09-17 03:37:00,48.4,45.9,30.29,East,82,0.0,0.0,91,0.00,CLR,,0.00,0.0,WeatherDisplay:10.37,2013-09-17 08:37:00,
2013-09-17 03:42:00,48.3,45.8,30.29,East,82,0.0,0.0,91,0.00,CLR,,0.00,0.0,WeatherDisplay:10.37,2013-09-17 08:42:00,
2013-09-17 03:47:00,48.2,45.7,30.29,East,82,0.0,0.0,91,0.00,CLR,,0.00,0.0,WeatherDisplay:10.37,2013-09-17 08:47:00,
2013-09-17 03:52:00,48.2,45.7,30.29,East,82,0.0,0.0,91,0.00,CLR,,0.00,0.0,WeatherDisplay:10.37,2013-09-17 08:52:00,
2013-09-17 03:57:00,48.2,45.7,30.29,East,82,0.0,0.0,91,0.00,CLR,,0.00,0.0,WeatherDisplay:10.37,2013-09-17 08:57:00,
2013-09-17 04:02:00,48.2,46.0,30.28,East,82,0.0,0.0,92,0.00,CLR,,0.00,0.0,WeatherDisplay:10.37,2013-09-17 09:02:00,
2013-09-17 04:07:00,48.2,46.0,30.28,East,82,0.0,0.0,92,0.00,CLR,,0.00,0.0,WeatherDisplay:10.37,2013-09-17 09:07:00,
2013-09-17 04:12:00,48.2,46.0,30.28,East,82,0.0,0.0,92,0.00,CLR,,0.00,0.0,WeatherDisplay:10.37,2013-09-17 09:12:00,
2013-09-17 04:17:00,48.2,46.0,30.28,East,82,0.0,0.0,92,0.00,CLR,,0.00,0.0,WeatherDisplay:10.37,2013-09-17 09:17:00,
2013-09-17 04:22:00,48.3,46.1,30.28,East,82,0.0,0.0,92,0.00,CLR,,0.00,0.0,WeatherDisplay:10.37,2013-09-17 09:22:00,
2013-09-17 04:27:00,48.2,46.0,30.28,East,82,0.0,0.0,92,0.00,CLR,,0.00,0.0,WeatherDisplay:10.37,2013-09-17 09:27:00,
2013-09-17 04:32:00,48.2,46.0,30.28,East,82,0.0,0.0,92,0.00,CLR,,0.00,0.0,WeatherDisplay:10.37,2013-09-17 09:32:00,
2013-09-17 04:37:00,48.2,46.3,30.28,East,82,0.0,0.0,93,0.00,CLR,,0.00,0.0,WeatherDisplay:10.37,2013-09-17 09:37:00,
2013-09-17 04:42:00,48.3,46.4,30.28,East,82,0.0,0.0,93,0.00,CLR,,0.00,0.0,WeatherDisplay:10.37,2013-09-17 09:42:00,
2013-09-17 04:47:00,48.3,46.4,30.28,East,82,0.0,0.0,93,0.00,CLR,,0.00,0.0,WeatherDisplay:10.37,2013-09-17 09:47:00,
2013-09-17 04:52:00,48.3,46.4,30.27,East,82,0.0,0.0,93,0.00,CLR,,0.00,0.0,WeatherDisplay:10.37,2013-09-17 09:52:00,
2013-09-17 04:57:00,48.3,46.4,30.27,East,82,0.0,0.0,93,0.00,CLR,,0.00,0.0,WeatherDisplay:10.37,2013-09-17 09:57:00,
2013-09-17 05:02:00,48.4,46.5,30.27,East,82,0.0,0.0,93,0.00,CLR,,0.00,0.0,WeatherDisplay:10.37,2013-09-17 10:02:00,
2013-09-17 05:07:00,48.4,46.8,30.27,East,81,0.0,0.0,94,0.00,CLR,,0.00,0.0,WeatherDisplay:10.37,2013-09-17 10:07:00,
2013-09-17 05:12:00,48.5,46.9,30.26,East,80,0.0,0.0,94,0.00,CLR,,0.00,0.0,WeatherDisplay:10.37,2013-09-17 10:12:00,
2013-09-17 05:17:00,48.5,46.9,30.26,East,80,0.0,0.0,94,0.00,CLR,,0.00,0.0,WeatherDisplay:10.37,2013-09-17 10:17:00,
2013-09-17 05:22:00,48.5,46.9,30.26,East,81,0.0,0.0,94,0.00,CLR,,0.00,0.0,WeatherDisplay:10.37,2013-09-17 10:22:00,
2013-09-17 05:27:00,48.5,46.9,30.26,East,81,0.0,0.0,94,0.00,CLR,,0.00,0.0,WeatherDisplay:10.37,2013-09-17 10:27:00,
2013-09-17 05:32:00,48.4,46.8,30.26,East,81,0.0,0.0,94,0.00,CLR,,0.00,0.0,WeatherDisplay:10.37,2013-09-17 10:32:00,
2013-09-17 05:37:00,48.4,46.8,30.26,East,81,0.0,0.0,94,0.00,CLR,,0.00,0.0,WeatherDisplay:10.37,2013-09-17 10:37:00,
2013-09-17 05:42:00,48.3,46.7,30.26,East,80,0.0,0.0,94,0.00,CLR,,0.00,0.0,WeatherDisplay:10.37,2013-09-17 10:42:00,
2013-09-17 05:47:00,48.3,46.7,30.26,East,81,0.0,0.0,94,0.00,CLR,,0.00,0.0,WeatherDisplay:10.37,2013-09-17 10:47:00,
2013-09-17 05:52:00,48.3,46.7,30.26,East,81,0.0,0.0,94,0.00,CLR,,0.00,0.0,WeatherDisplay:10.37,2013-09-17 10:52:00,
2013-09-17 05:57:00,48.2,46.6,30.25,East,81,0.0,0.0,94,0.00,CLR,,0.00,0.0,WeatherDisplay:10.37,2013-09-17 10:57:00,
2013-09-17 06:02:00,48.2,46.6,30.26,East,81,0.0,0.0,94,0.00,CLR,,0.00,0.0,WeatherDisplay:10.37,2013-09-17 11:02:00,
2013-09-17 06:07:00,48.2,46.6,30.26,East,80,0.0,0.0,94,0.00,CLR,,0.00,0.0,WeatherDisplay:10.37,2013-09-17 11:07:00,
2013-09-17 06:12:00,48.2,46.6,30.26,East,81,0.0,0.0,94,0.00,CLR,,0.00,0.0,WeatherDisplay:10.37,2013-09-17 11:12:00,
2013-09-17 06:17:00,48.1,46.5,30.26,East,81,0.0,0.0,94,0.00,CLR,,0.00,0.0,WeatherDisplay:10.37,2013-09-17 11:17:00,
2013-09-17 06:22:00,48.0,46.4,30.26,East,81,0.0,0.0,94,0.00,CLR,,0.00,0.0,WeatherDisplay:10.37,2013-09-17 11:22:00,
2013-09-17 06:27:00,48.0,46.4,30.26,East,80,0.0,0.0,94,0.00,CLR,,0.00,0.0,WeatherDisplay:10.37,2013-09-17 11:27:00,
2013-09-17 06:32:00,47.9,46.3,30.26,East,81,0.0,0.0,94,0.00,CLR,,0.00,0.0,WeatherDisplay:10.37,2013-09-17 11:32:00,
2013-09-17 06:37:00,47.9,46.3,30.27,East,80,0.0,0.0,94,0.00,CLR,,0.00,5.0,WeatherDisplay:10.37,2013-09-17 11:37:00,
2013-09-17 06:42:00,47.8,46.2,30.27,East,81,0.0,0.0,94,0.00,OVC,,0.00,5.0,WeatherDisplay:10.37,2013-09-17 11:42:00,
2013-09-17 06:47:00,47.8,46.2,30.27,East,81,0.0,0.0,94,0.00,OVC,,0.00,5.0,WeatherDisplay:10.37,2013-09-17 11:47:00,
2013-09-17 06:53:00,47.7,46.1,30.27,East,81,0.0,0.0,94,0.00,BKN,,0.00,7.0,WeatherDisplay:10.37,2013-09-17 11:53:00,
2013-09-17 06:58:00,47.7,46.1,30.27,East,81,0.0,0.0,94,0.00,BKN,,0.00,12.0,WeatherDisplay:10.37,2013-09-17 11:58:00,
2013-09-17 07:03:00,47.7,46.3,30.27,East,81,0.0,0.0,95,0.00,BKN,,0.00,14.0,WeatherDisplay:10.37,2013-09-17 12:03:00,
2013-09-17 07:08:00,47.8,46.4,30.27,East,81,0.0,0.0,95,0.00,BKN,,0.00,18.0,WeatherDisplay:10.37,2013-09-17 12:08:00,
2013-09-17 07:13:00,47.8,46.4,30.28,East,80,0.0,0.0,95,0.00,BKN,,0.00,21.0,WeatherDisplay:10.37,2013-09-17 12:13:00,
2013-09-17 07:17:00,47.8,46.4,30.28,East,81,0.0,0.0,95,0.00,BKN,,0.00,26.0,WeatherDisplay:10.37,2013-09-17 12:17:00,
2013-09-17 07:23:00,47.8,46.4,30.28,East,81,0.0,0.0,95,0.00,BKN,,0.00,32.0,WeatherDisplay:10.37,2013-09-17 12:23:00,
2013-09-17 07:28:00,47.8,46.4,30.28,East,81,0.0,0.0,95,0.00,BKN,,0.00,39.0,WeatherDisplay:10.37,2013-09-17 12:28:00,
2013-09-17 07:33:00,47.8,46.4,30.28,East,81,0.0,0.0,95,0.00,BKN,,0.00,54.0,WeatherDisplay:10.37,2013-09-17 12:33:00,
2013-09-17 07:38:00,47.9,46.5,30.28,East,81,0.0,0.0,95,0.00,BKN,,0.00,83.0,WeatherDisplay:10.37,2013-09-17 12:38:00,
2013-09-17 07:43:00,48.1,46.7,30.28,East,80,0.0,0.0,95,0.00,BKN,,0.00,62.0,WeatherDisplay:10.37,2013-09-17 12:43:00,
2013-09-17 07:48:00,48.2,46.8,30.28,East,81,0.0,0.0,95,0.00,BKN,,0.00,70.0,WeatherDisplay:10.37,2013-09-17 12:48:00,
2013-09-17 07:53:00,48.3,46.9,30.28,East,80,0.0,0.0,95,0.00,BKN,,0.00,79.0,WeatherDisplay:10.37,2013-09-17 12:53:00,
2013-09-17 07:58:00,48.5,47.1,30.28,East,80,1.2,0.0,95,0.00,BKN,,0.00,88.0,WeatherDisplay:10.37,2013-09-17 12:58:00,
2013-09-17 08:03:00,48.7,47.3,30.28,East,81,0.0,0.0,95,0.00,BKN,,0.00,118.0,WeatherDisplay:10.37,2013-09-17 13:03:00,
2013-09-17 08:08:00,49.0,47.6,30.28,East,81,3.5,3.5,95,0.00,BKN,,0.00,135.0,WeatherDisplay:10.37,2013-09-17 13:08:00,
2013-09-17 08:13:00,49.4,48.3,30.28,East,80,0.0,0.0,96,0.00,BKN,,0.00,144.0,WeatherDisplay:10.37,2013-09-17 13:13:00,
2013-09-17 08:18:00,49.8,48.7,30.28,East,81,0.0,0.0,96,0.00,BKN,,0.00,146.0,WeatherDisplay:10.37,2013-09-17 13:18:00,
2013-09-17 08:23:00,50.3,49.2,30.28,East,79,6.9,6.9,96,0.00,BKN,,0.00,139.0,WeatherDisplay:10.37,2013-09-17 13:23:00,
2013-09-17 08:28:00,50.7,49.6,30.28,East,79,0.0,0.0,96,0.00,BKN,,0.00,120.0,WeatherDisplay:10.37,2013-09-17 13:28:00,
2013-09-17 08:33:00,51.1,50.0,30.27,ENE,78,0.0,0.0,96,0.00,BKN,,0.00,104.0,WeatherDisplay:10.37,2013-09-17 13:33:00,
2013-09-17 08:38:00,51.4,50.3,30.27,ENE,78,3.5,3.5,96,0.00,BKN,,0.00,100.0,WeatherDisplay:10.37,2013-09-17 13:38:00,
2013-09-17 08:43:00,51.7,50.6,30.27,ESE,115,0.0,0.0,96,0.00,BKN,,0.00,102.0,WeatherDisplay:10.37,2013-09-17 13:43:00,
2013-09-17 08:48:00,52.1,51.0,30.27,ESE,115,0.0,0.0,96,0.00,BKN,,0.00,97.0,WeatherDisplay:10.37,2013-09-17 13:48:00,
2013-09-17 08:53:00,52.4,51.3,30.27,ESE,115,0.0,0.0,96,0.00,BKN,,0.00,105.0,WeatherDisplay:10.37,2013-09-17 13:53:00,
2013-09-17 08:58:00,52.7,51.6,30.27,ESE,114,0.0,0.0,96,0.00,BKN,,0.00,109.0,WeatherDisplay:10.37,2013-09-17 13:58:00,
2013-09-17 09:03:00,53.0,51.9,30.27,ESE,114,0.0,0.0,96,0.00,BKN,,0.00,123.0,WeatherDisplay:10.37,2013-09-17 14:03:00,
2013-09-17 09:08:00,53.4,52.3,30.27,ESE,111,0.0,0.0,96,0.00,BKN,,0.00,135.0,WeatherDisplay:10.37,2013-09-17 14:08:00,
2013-09-17 09:13:00,53.9,52.8,30.27,East,88,3.0,3.0,96,0.00,BKN,,0.00,144.0,WeatherDisplay:10.37,2013-09-17 14:13:00,
2013-09-17 09:18:00,54.3,53.2,30.26,East,81,0.0,0.2,96,0.00,BKN,,0.00,149.0,WeatherDisplay:10.37,2013-09-17 14:18:00,
2013-09-17 09:23:00,54.6,53.5,30.26,East,81,0.0,0.0,96,0.00,BKN,,0.00,162.0,WeatherDisplay:10.37,2013-09-17 14:23:00,
2013-09-17 09:28:00,55.2,54.1,30.26,East,83,4.6,4.6,96,0.00,BKN,,0.00,172.0,WeatherDisplay:10.37,2013-09-17 14:28:00,
2013-09-17 09:33:00,55.7,54.6,30.26,East,93,0.0,0.0,96,0.00,BKN,,0.00,197.0,WeatherDisplay:10.37,2013-09-17 14:33:00,
2013-09-17 09:38:00,56.3,55.2,30.26,East,88,0.0,0.0,96,0.00,BKN,,0.00,243.0,WeatherDisplay:10.37,2013-09-17 14:38:00,
2013-09-17 09:43:00,56.9,55.5,30.26,ESE,112,8.1,8.1,95,0.00,BKN,,0.00,283.0,WeatherDisplay:10.37,2013-09-17 14:43:00,
2013-09-17 09:48:00,57.6,56.2,30.25,South,190,6.9,6.9,95,0.00,BKN,,0.00,316.0,WeatherDisplay:10.37,2013-09-17 14:48:00,
2013-09-17 09:53:00,58.2,56.5,30.25,SE,133,2.0,2.0,94,0.00,BKN,,0.00,301.0,WeatherDisplay:10.37,2013-09-17 14:53:00,
2013-09-17 09:58:00,59.0,56.7,30.25,ESE,102,3.5,3.5,92,0.00,BKN,,0.00,323.0,WeatherDisplay:10.37,2013-09-17 14:58:00,
2013-09-17 10:03:00,59.7,56.8,30.25,ESE,121,5.8,5.8,90,0.00,BKN,,0.00,304.0,WeatherDisplay:10.37,2013-09-17 15:03:00,
2013-09-17 10:08:00,60.4,56.5,30.25,NE,55,3.5,3.5,87,0.00,BKN,,0.00,304.0,WeatherDisplay:10.37,2013-09-17 15:08:00,
2013-09-17 10:13:00,61.0,56.5,30.25,ENE,65,3.5,0.0,85,0.00,BKN,,0.00,297.0,WeatherDisplay:10.37,2013-09-17 15:13:00,
2013-09-17 10:18:00,61.6,56.4,30.25,ENE,72,4.6,4.6,83,0.00,BKN,,0.00,322.0,WeatherDisplay:10.37,2013-09-17 15:18:00,
2013-09-17 10:23:00,62.1,56.2,30.25,South,174,3.5,0.0,81,0.00,BKN,,0.00,367.0,WeatherDisplay:10.37,2013-09-17 15:23:00,
2013-09-17 10:28:00,62.7,56.4,30.25,South,179,0.0,0.0,80,0.00,BKN,,0.00,397.0,WeatherDisplay:10.37,2013-09-17 15:28:00,
2013-09-17 10:33:00,63.3,56.7,30.25,South,178,0.0,0.0,79,0.00,BKN,,0.00,345.0,WeatherDisplay:10.37,2013-09-17 15:33:00,
2013-09-17 10:38:00,63.8,56.4,30.24,East,90,0.0,0.0,77,0.00,BKN,,0.00,330.0,WeatherDisplay:10.37,2013-09-17 15:38:00,
2013-09-17 10:43:00,64.2,56.5,30.24,South,186,0.0,1.2,76,0.00,BKN,,0.00,306.0,WeatherDisplay:10.37,2013-09-17 15:43:00,
2013-09-17 10:48:00,64.6,56.5,30.24,East,96,4.0,4.0,75,0.00,BKN,,0.00,315.0,WeatherDisplay:10.37,2013-09-17 15:48:00,
2013-09-17 10:54:00,64.9,56.8,30.24,ESE,102,0.0,0.0,75,0.00,BKN,,0.00,316.0,WeatherDisplay:10.37,2013-09-17 15:54:00,
2013-09-17 10:59:00,65.1,56.6,30.24,ESE,105,2.3,2.3,74,0.00,BKN,,0.00,341.0,WeatherDisplay:10.37,2013-09-17 15:59:00,
2013-09-17 11:04:00,65.5,57.0,30.23,ESE,113,0.0,0.0,74,0.00,BKN,,0.00,323.0,WeatherDisplay:10.37,2013-09-17 16:04:00,
2013-09-17 11:09:00,65.7,56.8,30.23,ESE,109,0.0,0.0,73,0.00,BKN,,0.00,304.0,WeatherDisplay:10.37,2013-09-17 16:09:00,
2013-09-17 11:14:00,66.0,57.5,30.23,ESE,107,0.0,0.0,74,0.00,BKN,,0.00,336.0,WeatherDisplay:10.37,2013-09-17 16:14:00,
2013-09-17 11:19:00,66.5,57.6,30.23,SE,131,0.0,0.0,73,0.00,BKN,,0.00,388.0,WeatherDisplay:10.37,2013-09-17 16:19:00,
2013-09-17 11:24:00,67.1,57.4,30.23,ENE,76,5.8,5.8,71,0.00,SCT,,0.00,754.0,WeatherDisplay:10.37,2013-09-17 16:24:00,
2013-09-17 11:29:00,67.6,57.9,30.22,SSE,160,3.5,3.5,71,0.00,SCT,,0.00,536.0,WeatherDisplay:10.37,2013-09-17 16:29:00,
2013-09-17 11:34:00,68.4,57.8,30.22,SSE,154,3.5,3.5,69,0.00,SCT,,0.00,536.0,WeatherDisplay:10.37,2013-09-17 16:34:00,
2013-09-17 11:39:00,69.1,58.1,30.22,SSE,165,9.2,9.2,68,0.00,SCT,,0.00,450.0,WeatherDisplay:10.37,2013-09-17 16:39:00,
2013-09-17 11:44:00,69.5,58.1,30.22,East,80,4.6,4.6,67,0.00,SCT,,0.00,446.0,WeatherDisplay:10.37,2013-09-17 16:44:00,
2013-09-17 11:49:00,69.7,57.8,30.22,ENE,65,9.2,9.2,66,0.00,BKN,,0.00,378.0,WeatherDisplay:10.37,2013-09-17 16:49:00,
2013-09-17 11:54:00,69.9,58.0,30.21,ENE,69,0.0,0.0,66,0.00,BKN,,0.00,330.0,WeatherDisplay:10.37,2013-09-17 16:54:00,
2013-09-17 11:59:00,70.1,58.2,30.21,ENE,62,3.5,3.5,66,0.00,BKN,,0.00,313.0,WeatherDisplay:10.37,2013-09-17 16:59:00,
2013-09-17 12:04:00,70.2,57.9,30.21,NE,42,3.5,3.5,65,0.00,BKN,,0.00,299.0,WeatherDisplay:10.37,2013-09-17 17:04:00,
2013-09-17 12:09:00,70.3,58.0,30.21,East,82,6.9,6.9,65,0.00,BKN,,0.00,336.0,WeatherDisplay:10.37,2013-09-17 17:09:00,
2013-09-17 12:14:00,70.6,58.7,30.20,ENE,75,3.5,3.5,66,0.00,BKN,,0.00,341.0,WeatherDisplay:10.37,2013-09-17 17:14:00,
2013-09-17 12:19:00,70.9,59.0,30.20,ESE,121,4.6,4.6,66,0.00,BKN,,0.00,473.0,WeatherDisplay:10.37,2013-09-17 17:19:00,
2013-09-17 12:24:00,71.3,58.5,30.20,SE,129,3.5,3.5,64,0.00,BKN,,0.00,473.0,WeatherDisplay:10.37,2013-09-17 17:24:00,
2013-09-17 12:29:00,71.9,59.1,30.20,SSE,155,5.0,5.0,64,0.00,SCT,,0.00,503.0,WeatherDisplay:10.37,2013-09-17 17:29:00,
2013-09-17 12:34:00,72.5,58.3,30.19,South,169,11.5,11.5,61,0.00,SCT,,0.00,506.0,WeatherDisplay:10.37,2013-09-17 17:34:00,
2013-09-17 12:39:00,72.8,58.6,30.19,South,171,11.5,11.5,61,0.00,SCT,,0.00,513.0,WeatherDisplay:10.37,2013-09-17 17:39:00,
2013-09-17 12:44:00,72.9,59.1,30.19,SSE,167,6.9,6.9,62,0.00,SCT,,0.00,499.0,WeatherDisplay:10.37,2013-09-17 17:44:00,
2013-09-17 12:49:00,73.3,59.0,30.19,ESE,109,0.0,0.0,61,0.00,SCT,,0.00,441.0,WeatherDisplay:10.37,2013-09-17 17:49:00,
2013-09-17 12:54:00,73.5,59.2,30.19,SSE,168,0.0,0.0,61,0.00,BKN,,0.00,427.0,WeatherDisplay:10.37,2013-09-17 17:54:00,
2013-09-17 12:59:00,73.6,59.3,30.18,South,173,0.0,0.0,61,0.00,BKN,,0.00,450.0,WeatherDisplay:10.37,2013-09-17 17:59:00,
2013-09-17 13:04:00,73.7,58.9,30.19,SSE,162,11.5,11.5,60,0.00,BKN,,0.00,378.0,WeatherDisplay:10.37,2013-09-17 18:04:00,
2013-09-17 13:09:00,73.6,58.9,30.18,ESE,105,3.5,3.5,60,0.00,BKN,,0.00,301.0,WeatherDisplay:10.37,2013-09-17 18:09:00,
2013-09-17 13:14:00,73.5,59.2,30.18,SSE,158,9.2,9.2,61,0.00,BKN,,0.00,279.0,WeatherDisplay:10.37,2013-09-17 18:14:00,
2013-09-17 13:19:00,73.4,59.1,30.17,SSE,167,0.0,3.4,61,0.00,BKN,,0.00,304.0,WeatherDisplay:10.37,2013-09-17 18:19:00,
2013-09-17 13:24:00,73.2,58.9,30.17,SSE,163,13.0,13.0,61,0.00,BKN,,0.00,306.0,WeatherDisplay:10.37,2013-09-17 18:24:00,
2013-09-17 13:29:00,72.8,58.6,30.17,SSE,165,2.3,2.3,61,0.00,BKN,,0.00,295.0,WeatherDisplay:10.37,2013-09-17 18:29:00,
2013-09-17 13:34:00,72.8,59.0,30.17,South,172,3.5,3.5,62,0.00,BKN,,0.00,396.0,WeatherDisplay:10.37,2013-09-17 18:34:00,
2013-09-17 13:40:00,72.9,59.1,30.17,South,171,4.6,4.6,62,0.00,BKN,,0.00,397.0,WeatherDisplay:10.37,2013-09-17 18:40:00,
2013-09-17 13:45:00,73.1,59.3,30.17,SE,130,10.4,0.0,62,0.00,BKN,,0.00,390.0,WeatherDisplay:10.37,2013-09-17 18:45:00,
2013-09-17 13:50:00,73.3,59.5,30.17,SSE,157,9.2,9.2,62,0.00,BKN,,0.00,374.0,WeatherDisplay:10.37,2013-09-17 18:50:00,
2013-09-17 13:55:00,73.4,59.6,30.16,South,184,11.5,11.5,62,0.00,BKN,,0.00,295.0,WeatherDisplay:10.37,2013-09-17 18:55:00,
2013-09-17 14:00:00,73.2,59.4,30.16,SSE,158,0.0,0.2,62,0.00,BKN,,0.00,264.0,WeatherDisplay:10.37,2013-09-17 19:00:00,
2013-09-17 14:05:00,73.2,58.9,30.16,SSE,159,12.7,12.7,61,0.00,BKN,,0.00,241.0,WeatherDisplay:10.37,2013-09-17 19:05:00,
2013-09-17 14:10:00,73.0,58.8,30.16,SSE,160,9.2,9.2,61,0.00,BKN,,0.00,279.0,WeatherDisplay:10.37,2013-09-17 19:10:00,
2013-09-17 14:15:00,72.9,59.1,30.15,South,171,4.6,4.6,62,0.00,BKN,,0.00,253.0,WeatherDisplay:10.37,2013-09-17 19:15:00,
2013-09-17 14:20:00,72.9,59.6,30.15,SSE,158,9.2,9.2,63,0.00,BKN,,0.00,302.0,WeatherDisplay:10.37,2013-09-17 19:20:00,
2013-09-17 14:25:00,72.9,59.1,30.15,SSE,149,6.9,6.9,62,0.00,BKN,,0.00,316.0,WeatherDisplay:10.37,2013-09-17 19:25:00,
2013-09-17 14:30:00,72.9,59.6,30.15,SE,144,2.3,2.3,63,0.00,BKN,,0.00,313.0,WeatherDisplay:10.37,2013-09-17 19:30:00,
2013-09-17 14:35:00,73.0,59.7,30.14,SSE,156,5.8,5.8,63,0.00,BKN,,0.00,330.0,WeatherDisplay:10.37,2013-09-17 19:35:00,
2013-09-17 14:40:00,73.2,59.8,30.15,South,182,0.0,0.0,63,0.00,BKN,,0.00,244.0,WeatherDisplay:10.37,2013-09-17 19:40:00,
2013-09-17 14:45:00,73.3,59.5,30.14,South,169,10.4,10.4,62,0.00,BKN,,0.00,209.0,WeatherDisplay:10.37,2013-09-17 19:45:00,
2013-09-17 14:50:00,73.3,59.5,30.14,SSE,160,2.3,2.3,62,0.00,BKN,,0.00,183.0,WeatherDisplay:10.37,2013-09-17 19:50:00,
2013-09-17 14:55:00,73.2,59.4,30.14,SSE,155,0.0,0.0,62,0.00,BKN,,0.00,199.0,WeatherDisplay:10.37,2013-09-17 19:55:00,
2013-09-17 15:00:00,73.0,59.2,30.14,SE,144,0.0,0.0,62,0.00,BKN,,0.00,169.0,WeatherDisplay:10.37,2013-09-17 20:00:00,
2013-09-17 15:05:00,72.9,59.1,30.14,SSE,161,3.5,3.5,62,0.00,BKN,,0.00,148.0,WeatherDisplay:10.37,2013-09-17 20:05:00,
2013-09-17 15:10:00,72.7,59.4,30.13,SSE,159,5.8,5.8,63,0.00,BKN,,0.00,139.0,WeatherDisplay:10.37,2013-09-17 20:10:00,
2013-09-17 15:15:00,72.6,59.3,30.13,South,176,9.2,9.2,63,0.00,BKN,,0.00,116.0,WeatherDisplay:10.37,2013-09-17 20:15:00,
2013-09-17 15:20:00,72.4,59.5,30.13,South,179,0.0,0.0,64,0.00,BKN,,0.00,98.0,WeatherDisplay:10.37,2013-09-17 20:20:00,
2013-09-17 15:25:00,72.2,59.3,30.13,South,177,1.2,1.2,64,0.00,BKN,,0.00,93.0,WeatherDisplay:10.37,2013-09-17 20:25:00,
2013-09-17 15:30:00,72.1,59.2,30.13,South,173,4.6,4.6,64,0.00,BKN,,0.00,127.0,WeatherDisplay:10.37,2013-09-17 20:30:00,
2013-09-17 15:35:00,72.0,59.6,30.12,South,173,0.0,0.0,65,0.00,BKN,,0.00,116.0,WeatherDisplay:10.37,2013-09-17 20:35:00,
2013-09-17 15:40:00,72.0,60.0,30.12,South,173,0.0,0.3,66,0.00,BKN,,0.00,104.0,WeatherDisplay:10.37,2013-09-17 20:40:00,
2013-09-17 15:45:00,71.9,59.9,30.12,South,171,5.8,5.8,66,0.00,BKN,,0.00,114.0,WeatherDisplay:10.37,2013-09-17 20:45:00,
2013-09-17 15:50:00,71.8,59.8,30.12,South,171,4.6,4.6,66,0.00,BKN,,0.00,102.0,WeatherDisplay:10.37,2013-09-17 20:50:00,
2013-09-17 15:55:00,71.7,59.7,30.12,South,171,2.3,2.3,66,0.00,BKN,,0.00,90.0,WeatherDisplay:10.37,2013-09-17 20:55:00,
2013-09-17 16:00:00,71.6,59.6,30.12,South,169,4.0,4.0,66,0.00,BKN,,0.00,95.0,WeatherDisplay:10.37,2013-09-17 21:00:00,
2013-09-17 16:05:00,71.5,60.0,30.11,SSE,168,0.0,0.0,67,0.00,BKN,,0.00,123.0,WeatherDisplay:10.37,2013-09-17 21:05:00,
2013-09-17 16:10:00,71.5,60.0,30.11,South,169,0.0,0.0,67,0.00,BKN,,0.00,109.0,WeatherDisplay:10.37,2013-09-17 21:10:00,
2013-09-17 16:15:00,71.5,60.0,30.11,South,169,0.0,0.0,67,0.00,BKN,,0.00,107.0,WeatherDisplay:10.37,2013-09-17 21:15:00,
2013-09-17 16:20:00,71.6,60.1,30.11,South,169,0.0,0.0,67,0.00,BKN,,0.00,127.0,WeatherDisplay:10.37,2013-09-17 21:20:00,
2013-09-17 16:25:00,71.6,60.1,30.11,South,169,0.0,0.0,67,0.00,BKN,,0.00,134.0,WeatherDisplay:10.37,2013-09-17 21:25:00,
2013-09-17 16:30:00,71.6,60.5,30.11,South,169,0.0,0.0,68,0.00,BKN,,0.00,141.0,WeatherDisplay:10.37,2013-09-17 21:30:00,
2013-09-17 16:35:00,71.7,60.6,30.11,South,169,0.0,0.0,68,0.00,BKN,,0.00,148.0,WeatherDisplay:10.37,2013-09-17 21:35:00,
2013-09-17 16:40:00,71.7,60.6,30.10,South,169,5.8,5.8,68,0.00,BKN,,0.00,137.0,WeatherDisplay:10.37,2013-09-17 21:40:00,
2013-09-17 16:45:00,71.8,60.7,30.10,South,170,4.6,4.6,68,0.00,BKN,,0.00,156.0,WeatherDisplay:10.37,2013-09-17 21:45:00,
2013-09-17 16:50:00,71.9,60.8,30.10,South,170,0.0,0.0,68,0.00,BKN,,0.00,169.0,WeatherDisplay:10.37,2013-09-17 21:50:00,
2013-09-17 16:55:00,72.0,60.9,30.10,South,169,0.0,0.0,68,0.00,BKN,,0.00,193.0,WeatherDisplay:10.37,2013-09-17 21:55:00,
2013-09-17 17:00:00,72.1,61.0,30.10,SSE,168,0.0,0.0,68,0.00,BKN,,0.00,163.0,WeatherDisplay:10.37,2013-09-17 22:00:00,
2013-09-17 17:06:00,72.2,60.6,30.10,South,171,0.0,0.0,67,0.00,BKN,,0.00,90.0,WeatherDisplay:10.37,2013-09-17 22:06:00,
2013-09-17 17:11:00,72.3,60.7,30.10,South,171,0.0,0.0,67,0.00,BKN,,0.00,72.0,WeatherDisplay:10.37,2013-09-17 22:11:00,
2013-09-17 17:16:00,72.3,60.3,30.10,South,171,0.0,0.0,66,0.00,BKN,,0.00,74.0,WeatherDisplay:10.37,2013-09-17 22:16:00,
2013-09-17 17:21:00,72.1,60.1,30.10,SSE,160,6.9,6.9,66,0.00,BKN,,0.00,72.0,WeatherDisplay:10.37,2013-09-17 22:21:00,
2013-09-17 17:26:00,72.1,60.1,30.10,SSE,147,0.0,0.0,66,0.00,BKN,,0.00,67.0,WeatherDisplay:10.37,2013-09-17 22:26:00,
2013-09-17 17:31:00,72.0,60.0,30.09,South,173,4.6,4.6,66,0.00,BKN,,0.00,53.0,WeatherDisplay:10.37,2013-09-17 22:31:00,
2013-09-17 17:36:00,71.9,60.3,30.09,South,173,0.0,0.1,67,0.00,BKN,,0.00,44.0,WeatherDisplay:10.37,2013-09-17 22:36:00,
2013-09-17 17:41:00,71.7,60.2,30.09,South,171,0.0,0.0,67,0.00,BKN,,0.00,46.0,WeatherDisplay:10.37,2013-09-17 22:41:00,
2013-09-17 17:46:00,71.6,60.1,30.10,South,171,3.5,3.5,67,0.00,BKN,,0.00,37.0,WeatherDisplay:10.37,2013-09-17 22:46:00,
2013-09-17 17:51:00,71.6,60.5,30.09,South,171,0.0,0.0,68,0.00,BKN,,0.00,40.0,WeatherDisplay:10.37,2013-09-17 22:51:00,
2013-09-17 17:56:00,71.5,60.4,30.09,South,171,0.0,0.0,68,0.00,BKN,,0.00,46.0,WeatherDisplay:10.37,2013-09-17 22:56:00,
2013-09-17 18:01:00,71.5,60.4,30.09,South,171,0.0,0.0,68,0.00,BKN,,0.00,58.0,WeatherDisplay:10.37,2013-09-17 23:01:00,
2013-09-17 18:06:00,71.4,60.7,30.09,South,171,0.0,0.0,69,0.00,BKN,,0.00,63.0,WeatherDisplay:10.37,2013-09-17 23:06:00,
2013-09-17 18:11:00,71.3,60.6,30.09,South,171,0.0,0.0,69,0.00,BKN,,0.00,42.0,WeatherDisplay:10.37,2013-09-17 23:11:00,
2013-09-17 18:16:00,71.3,60.6,30.08,South,171,0.0,0.0,69,0.00,BKN,,0.00,40.0,WeatherDisplay:10.37,2013-09-17 23:16:00,
2013-09-17 18:21:00,71.3,60.6,30.09,South,171,0.0,0.0,69,0.00,BKN,,0.00,25.0,WeatherDisplay:10.37,2013-09-17 23:21:00,
2013-09-17 18:26:00,71.3,60.6,30.08,South,171,0.0,0.0,69,0.00,BKN,,0.00,23.0,WeatherDisplay:10.37,2013-09-17 23:26:00,
2013-09-17 18:31:00,71.3,61.0,30.08,South,171,0.0,0.0,70,0.00,BKN,,0.00,23.0,WeatherDisplay:10.37,2013-09-17 23:31:00,
2013-09-17 18:36:00,71.3,61.0,30.08,South,171,0.0,0.0,70,0.00,BKN,,0.00,21.0,WeatherDisplay:10.37,2013-09-17 23:36:00,
2013-09-17 18:41:00,71.3,61.0,30.08,South,171,0.0,0.0,70,0.00,BKN,,0.00,19.0,WeatherDisplay:10.37,2013-09-17 23:41:00,
2013-09-17 18:46:00,71.2,60.9,30.08,South,171,0.0,0.0,70,0.00,BKN,,0.00,14.0,WeatherDisplay:10.37,2013-09-17 23:46:00,
2013-09-17 18:51:00,71.1,60.8,30.08,South,171,0.0,0.0,70,0.00,BKN,,0.00,5.0,WeatherDisplay:10.37,2013-09-17 23:51:00,
2013-09-17 18:56:00,71.0,60.7,30.07,South,171,0.0,0.0,70,0.00,BKN,,0.00,5.0,WeatherDisplay:10.37,2013-09-17 23:56:00,
2013-09-17 19:01:00,71.0,60.7,30.07,South,171,0.0,0.0,70,0.00,BKN,,0.00,0.0,WeatherDisplay:10.37,2013-09-18 00:01:00,
2013-09-17 19:06:00,70.9,60.6,30.07,South,171,0.0,0.0,70,0.00,OVC,,0.00,0.0,WeatherDisplay:10.37,2013-09-18 00:06:00,
2013-09-17 19:11:00,70.8,60.5,30.07,South,171,0.0,0.0,70,0.00,CLR,,0.00,0.0,WeatherDisplay:10.37,2013-09-18 00:11:00,
2013-09-17 19:16:00,70.7,60.8,30.07,South,171,0.0,0.0,71,0.00,CLR,,0.00,0.0,WeatherDisplay:10.37,2013-09-18 00:16:00,
2013-09-17 19:22:00,70.6,60.7,30.07,South,171,0.0,0.0,71,0.00,CLR,,0.00,0.0,WeatherDisplay:10.37,2013-09-18 00:22:00,
2013-09-17 19:27:00,70.4,60.5,30.07,South,171,0.0,0.0,71,0.00,CLR,,0.00,0.0,WeatherDisplay:10.37,2013-09-18 00:27:00,
2013-09-17 19:32:00,70.3,60.8,30.07,South,171,0.0,0.0,72,0.00,CLR,,0.00,0.0,WeatherDisplay:10.37,2013-09-18 00:32:00,
2013-09-17 19:37:00,70.2,60.7,30.07,South,171,0.0,0.0,72,0.00,CLR,,0.00,0.0,WeatherDisplay:10.37,2013-09-18 00:37:00,
2013-09-17 19:42:00,70.1,60.7,30.07,South,171,0.0,0.0,72,0.00,CLR,,0.00,0.0,WeatherDisplay:10.37,2013-09-18 00:42:00,
2013-09-17 19:47:00,69.9,60.5,30.07,South,171,0.0,0.0,72,0.00,CLR,,0.00,0.0,WeatherDisplay:10.37,2013-09-18 00:47:00,
2013-09-17 19:52:00,69.8,60.4,30.07,South,171,0.0,0.0,72,0.00,CLR,,0.00,0.0,WeatherDisplay:10.37,2013-09-18 00:52:00,
2013-09-17 19:57:00,69.6,60.2,30.08,South,171,0.0,0.0,72,0.00,CLR,,0.00,0.0,WeatherDisplay:10.37,2013-09-18 00:57:00,
2013-09-17 20:02:00,69.5,60.1,30.07,South,171,0.0,0.0,72,0.00,CLR,,0.00,0.0,WeatherDisplay:10.37,2013-09-18 01:02:00,
2013-09-17 20:07:00,69.4,60.4,30.07,South,171,0.0,0.0,73,0.00,CLR,,0.00,0.0,WeatherDisplay:10.37,2013-09-18 01:07:00,
2013-09-17 20:12:00,69.2,60.2,30.07,South,171,0.0,0.0,73,0.00,CLR,,0.00,0.0,WeatherDisplay:10.37,2013-09-18 01:12:00,
2013-09-17 20:17:00,69.1,60.5,30.07,South,171,0.0,0.0,74,0.00,CLR,,0.00,0.0,WeatherDisplay:10.37,2013-09-18 01:17:00,
2013-09-17 20:22:00,69.0,60.7,30.07,South,171,0.0,0.0,75,0.00,CLR,,0.00,0.0,WeatherDisplay:10.37,2013-09-18 01:22:00,
2013-09-17 20:27:00,68.9,60.6,30.07,South,171,0.0,0.0,75,0.00,CLR,,0.00,0.0,WeatherDisplay:10.37,2013-09-18 01:27:00,
2013-09-17 20:32:00,68.7,60.5,30.07,South,171,0.0,0.0,75,0.00,CLR,,0.00,0.0,WeatherDisplay:10.37,2013-09-18 01:32:00,
2013-09-17 20:37:00,68.6,60.4,30.07,South,171,0.0,0.0,75,0.00,CLR,,0.00,0.0,WeatherDisplay:10.37,2013-09-18 01:37:00,
2013-09-17 20:42:00,68.5,60.3,30.07,South,171,0.0,0.0,75,0.00,CLR,,0.00,0.0,WeatherDisplay:10.37,2013-09-18 01:42:00,
2013-09-17 20:47:00,68.4,60.5,30.07,South,171,0.0,0.0,76,0.00,CLR,,0.00,0.0,WeatherDisplay:10.37,2013-09-18 01:47:00,
2013-09-17 20:52:00,68.3,60.4,30.07,South,171,0.0,0.0,76,0.00,CLR,,0.00,0.0,WeatherDisplay:10.37,2013-09-18 01:52:00,
2013-09-17 20:57:00,68.1,60.2,30.07,South,171,0.0,0.0,76,0.00,CLR,,0.00,0.0,WeatherDisplay:10.37,2013-09-18 01:57:00,
2013-09-17 21:02:00,68.0,60.5,30.07,South,171,0.0,0.0,77,0.00,CLR,,0.00,0.0,WeatherDisplay:10.37,2013-09-18 02:02:00,
2013-09-17 21:07:00,67.9,60.4,30.07,South,171,0.0,0.0,77,0.00,CLR,,0.00,0.0,WeatherDisplay:10.37,2013-09-18 02:07:00,
2013-09-17 21:13:00,67.8,60.3,30.06,South,171,0.0,0.0,77,0.00,CLR,,0.00,0.0,WeatherDisplay:10.37,2013-09-18 02:13:00,
2013-09-17 21:18:00,67.8,60.7,30.06,South,171,0.0,0.0,78,0.00,CLR,,0.00,0.0,WeatherDisplay:10.37,2013-09-18 02:18:00,
2013-09-17 21:23:00,67.7,60.6,30.06,South,171,0.0,0.0,78,0.00,CLR,,0.00,0.0,WeatherDisplay:10.37,2013-09-18 02:23:00,
2013-09-17 21:28:00,67.6,60.5,30.06,South,171,0.0,0.0,78,0.00,CLR,,0.00,0.0,WeatherDisplay:10.37,2013-09-18 02:28:00,
2013-09-17 21:33:00,67.6,60.5,30.06,South,171,0.0,0.0,78,0.00,CLR,,0.00,0.0,WeatherDisplay:10.37,2013-09-18 02:33:00,
2013-09-17 21:38:00,67.5,60.4,30.06,South,171,0.0,0.0,78,0.00,CLR,,0.00,0.0,WeatherDisplay:10.37,2013-09-18 02:38:00,
2013-09-17 21:43:00,67.4,60.3,30.06,South,171,0.0,0.0,78,0.00,CLR,,0.00,0.0,WeatherDisplay:10.37,2013-09-18 02:43:00,
2013-09-17 21:48:00,67.4,60.3,30.06,South,171,0.0,0.0,78,0.00,CLR,,0.00,0.0,WeatherDisplay:10.37,2013-09-18 02:48:00,
2013-09-17 21:53:00,67.3,60.6,30.05,South,171,0.0,0.0,79,0.00,CLR,,0.00,0.0,WeatherDisplay:10.37,2013-09-18 02:53:00,
2013-09-17 21:58:00,67.3,60.6,30.06,South,171,0.0,0.0,79,0.00,CLR,,0.00,0.0,WeatherDisplay:10.37,2013-09-18 02:58:00,
2013-09-17 22:03:00,67.2,60.5,30.05,South,171,0.0,0.0,79,0.00,CLR,,0.00,0.0,WeatherDisplay:10.37,2013-09-18 03:03:00,
2013-09-17 22:08:00,67.1,60.4,30.05,South,171,0.0,0.0,79,0.00,CLR,,0.00,0.0,WeatherDisplay:10.37,2013-09-18 03:08:00,
2013-09-17 22:14:00,67.0,60.3,30.05,South,171,0.0,0.0,79,0.00,CLR,,0.00,0.0,WeatherDisplay:10.37,2013-09-18 03:14:00,
2013-09-17 22:19:00,66.9,60.2,30.05,South,171,0.0,0.0,79,0.00,CLR,,0.00,0.0,WeatherDisplay:10.37,2013-09-18 03:19:00,
2013-09-17 22:24:00,66.8,60.1,30.05,South,171,0.0,0.0,79,0.00,CLR,,0.00,0.0,WeatherDisplay:10.37,2013-09-18 03:24:00,
2013-09-17 22:29:00,66.7,60.0,30.06,South,171,0.0,0.0,79,0.00,CLR,,0.00,0.0,WeatherDisplay:10.37,2013-09-18 03:29:00,
2013-09-17 22:34:00,66.6,59.9,30.05,South,171,0.0,0.0,79,0.00,CLR,,0.00,0.0,WeatherDisplay:10.37,2013-09-18 03:34:00,
2013-09-17 22:39:00,66.5,59.8,30.05,South,171,0.0,0.0,79,0.00,CLR,,0.00,0.0,WeatherDisplay:10.37,2013-09-18 03:39:00,
2013-09-17 22:44:00,66.4,59.7,30.06,South,171,0.0,0.0,79,0.00,CLR,,0.00,0.0,WeatherDisplay:10.37,2013-09-18 03:44:00,
2013-09-17 22:49:00,66.2,59.5,30.06,South,171,0.0,0.0,79,0.00,CLR,,0.00,0.0,WeatherDisplay:10.37,2013-09-18 03:49:00,
2013-09-17 22:54:00,66.1,59.4,30.05,South,171,0.0,0.0,79,0.00,CLR,,0.00,0.0,WeatherDisplay:10.37,2013-09-18 03:54:00,
2013-09-17 22:59:00,66.1,59.7,30.05,South,171,0.0,0.0,80,0.00,CLR,,0.00,0.0,WeatherDisplay:10.37,2013-09-18 03:59:00,
2013-09-17 23:01:00,66.0,59.7,30.05,South,171,0.0,0.0,80,0.00,CLR,,0.00,0.0,WeatherDisplay:10.37,2013-09-18 04:01:00,
2013-09-17 23:06:00,65.9,59.6,30.05,South,171,0.0,0.0,80,0.00,CLR,,0.00,0.0,WeatherDisplay:10.37,2013-09-18 04:06:00,
2013-09-17 23:11:00,65.8,59.8,30.04,South,171,0.0,0.0,81,0.00,CLR,,0.00,0.0,WeatherDisplay:10.37,2013-09-18 04:11:00,
2013-09-17 23:17:00,65.7,59.7,30.05,South,171,0.0,0.0,81,0.00,CLR,,0.00,0.0,WeatherDisplay:10.37,2013-09-18 04:17:00,
2013-09-17 23:22:00,65.6,59.6,30.04,South,171,0.0,0.0,81,0.00,CLR,,0.00,0.0,WeatherDisplay:10.37,2013-09-18 04:22:00,
2013-09-17 23:27:00,65.6,60.0,30.04,South,171,0.0,0.0,82,0.00,CLR,,0.00,0.0,WeatherDisplay:10.37,2013-09-18 04:27:00,
2013-09-17 23:32:00,65.4,59.8,30.04,South,173,3.5,3.5,82,0.00,CLR,,0.00,0.0,WeatherDisplay:10.37,2013-09-18 04:32:00,
2013-09-17 23:37:00,65.4,59.8,30.04,South,175,6.9,6.9,82,0.00,CLR,,0.00,0.0,WeatherDisplay:10.37,2013-09-18 04:37:00,
2013-09-17 23:42:00,65.4,59.8,30.04,South,177,0.0,0.0,82,0.00,CLR,,0.00,0.0,WeatherDisplay:10.37,2013-09-18 04:42:00,
2013-09-17 23:47:00,65.3,59.7,30.04,South,177,0.0,0.0,82,0.00,CLR,,0.00,0.0,WeatherDisplay:10.37,2013-09-18 04:47:00,
2013-09-17 23:52:00,65.3,59.7,30.04,South,176,0.0,0.0,82,0.00,CLR,,0.00,0.0,WeatherDisplay:10.37,2013-09-18 04:52:00,
2013-09-17 23:57:00,65.4,59.8,30.04,South,177,0.0,0.0,82,0.00,CLR,,0.00,0.0,WeatherDisplay:10.37,2013-09-18 04:57:00,